Regional Weather Roundup
Issued by NWS

Home | Current Version | Previous Version | Graphics & Text | Print | Product List | Glossary On
Versions: 1 2 3 4 5 6 7 8 9 10 11 12 13 14 15 16 17 18 19 20 21 22 23 24 25 26 27 28 29 30 31 32 33 34 35 36 37 38 39 40 41 42 43 44 45 46 47 48 49 50
000
ASUS43 KLSX 010807
RWRMO

WEATHER SUMMARY FOR MISSOURI
NATIONAL WEATHER SERVICE SPRINGFIELD MO
200 AM CST SUN MAR 01 2015

NOTE: "FAIR" INDICATES FEW OR NO CLOUDS BELOW 12,000 FEET WITH NO
       SIGNIFICANT WEATHER AND/OR OBSTRUCTIONS TO VISIBILITY.
       CURRENT SKY AND/OR WEATHER CONDITIONS ARE NOT AVAILABLE FOR
       CHILLICOTHE AND FARMINGTON.

MOZ001>031-035>038-043-044-053-054-010900-
...NORTHERN AND WESTERN MISSOURI...

CITY           SKY/WX    TMP DP  RH WIND       PRES   REMARKS
KANSAS CTY INT CLOUDY    22  20  92 CALM      30.35S
KANSAS C DTWN  CLOUDY    25  21  85 CALM      30.37F
LEE`S SUMMIT   LGT SNOW  22  20  92 CALM      30.35F FOG
ST JOSEPH      CLOUDY    23  19  85 CALM      30.38F
CHILLICOTHE      N/A     23  19  85 CALM      30.39S
KIRKSVILLE     LGT SNOW  20  19  96 CALM      30.38R FOG

$$
MOZ066>068-077>081-088>096-101>105-010900-
...SOUTHWEST MISSOURI...

CITY           SKY/WX    TMP DP  RH WIND       PRES   REMARKS
SPRINGFIELD    CLOUDY    27  25  92 S3        30.32R
JOPLIN         CLOUDY    27  25  92 CALM      30.34S FOG

$$
MOZ032>034-039>042-045>050-055>058-069>072-010900-
...CENTRAL MISSOURI...

CITY           SKY/WX    TMP DP  RH WIND       PRES   REMARKS
COLUMBIA       LGT SNOW  24  22  91 E5        30.35S FOG     WCI  18
JEFFERSON CITY CLOUDY    25  22  88 CALM      30.38S FOG
ROLLA          CLOUDY    24  22  91 CALM      30.32S
SEDALIA        LGT SNOW  24  21  88 N3        30.37R FOG
WHITEMAN AFB   LGT SNOW  23  21  92 NE1       30.34S FOG
WARRENSBURG    LGT SNOW  23  21  93 CALM      30.36F
OSAGE BEACH    CLOUDY    27  23  86 CALM      30.34F

$$
MOZ051-052-059>065-010900-
...EAST CENTRAL MISSOURI...

CITY           SKY/WX    TMP DP  RH WIND       PRES   REMARKS
ST LOUIS INTL  LGT SNOW  27  21  80 CALM      30.39S FOG
SPIRIT OF STL  LGT SNOW  26  23  88 CALM      30.37F FOG
ST CHARLES     CLOUDY    25  23  92 E3        30.39F

$$
MOZ072>076-082>087-097>100-106>115-010900-
...SOUTH CENTRAL AND SOUTHEAST MISSOURI...

CITY           SKY/WX    TMP DP  RH WIND       PRES   REMARKS
CAPE GIRARDEAU MIX PCPN  31  25  78 CALM      30.40F
FARMINGTON     CLOUDY    27  25  93 S6        30.37F WCI  20
POPLAR BLUFF   FRZ RAIN  30  24  78 NE6       30.37F WCI  24
WEST PLAINS    FRZ RAIN  28  26  92 SE6       30.32F FOG     WCI  22

$$


USA.gov is the U.S. government's official web portal to all federal, state and local government web resources and services.